I0ABU-3 Weather Reports


Display with metric or nautical units.
time (UTC)temp
F
wind
direction
speed
MPH
gust
MPH
rain 1hr
in
rain 24hr
in
rain mn
in
humidity
%
barometer
mb
20260507093021 66 186 4.0 8.0 0.00 0.04 0.00 68 1011.8
20260507091551 66 217 3.0 7.0 0.00 0.04 0.00 69 1011.6
20260507090008 64 202 4.0 9.0 0.00 0.04 0.00 70 1011.8
20260507084531 65 184 4.0 6.0 0.00 0.04 0.00 69 1011.8
20260507083056 65 181 1.0 4.0 0.00 0.04 0.00 71 1011.7
20260507081533 63 182 3.0 7.0 0.00 0.04 0.00 71 1011.8
20260507080038 64 192 1.0 4.0 0.00 0.04 0.00 71 1011.8
20260507074611 63 138 2.0 5.0 0.00 0.04 0.00 70 1011.9
20260507073023 63 299 0.0 4.0 0.00 0.04 0.00 73 1012.1
20260507071549 61 225 3.0 7.0 0.00 0.04 0.00 75 1012.3
20260507070011 63 194 2.0 4.0 0.00 0.04 0.00 71 1012.2
20260507064534 62 321 1.0 5.0 0.00 0.07 0.00 73 1012.0
20260507063041 61 92 0.0 6.0 0.00 0.07 0.00 76 1012.0
20260507061502 61 355 3.0 7.0 0.00 0.07 0.00 76 1011.9
20260507060027 59 21 0.0 4.0 0.00 0.07 0.00 81 1011.9
20260507054636 58 21 0.0 1.0 0.00 0.10 0.00 83 1012.0
20260507053012 57 21 0.0 4.0 0.00 0.10 0.00 84 1011.8
20260507051537 57 21 2.0 3.0 0.00 0.10 0.00 84 1011.9
20260507050052 57 21 2.0 5.0 0.00 0.10 0.00 84 1011.8
20260507044507 57 11 2.0 4.0 0.00 0.10 0.00 84 1011.8
20260507043032 57 360 2.0 4.0 0.00 0.10 0.00 83 1011.6
20260507041545 57 360 1.0 3.0 0.00 0.10 0.00 82 1011.6
20260507040049 57 360 1.0 3.0 0.00 0.10 0.00 81 1011.5
20260507034513 57 360 1.0 3.0 0.00 0.10 0.00 82 1011.3
20260507033034 57 360 1.0 3.0 0.00 0.10 0.00 81 1011.4
20260507031601 57 360 1.0 3.0 0.00 0.10 0.00 80 1011.3
20260507030002 57 360 1.0 3.0 0.00 0.10 0.00 80 1011.3
20260507024532 57 360 0.0 2.0 0.00 0.10 0.00 79 1011.4
20260507023102 57 360 1.0 2.0 0.00 0.10 0.00 79 1011.4
20260507021512 57 360 0.0 2.0 0.00 0.10 0.00 79 1011.4
20260507020035 57 360 0.0 2.0 0.00 0.10 0.00 80 1011.3
20260507014606 57 23 1.0 4.0 0.00 0.10 0.00 81 1011.5
20260507013018 56 49 3.0 6.0 0.00 0.10 0.00 82 1011.3
20260507011545 57 355 2.0 4.0 0.00 0.10 0.00 81 1011.4
20260507010002 57 53 1.0 4.0 0.00 0.10 0.00 80 1011.5
20260507004528 57 5 2.0 5.0 0.00 0.10 0.00 79 1011.5
20260507003038 57 31 1.0 4.0 0.00 0.10 0.00 81 1011.5
20260507001543 56 82 1.0 3.0 0.00 0.10 0.00 85 1011.5
20260507000002 56 5 1.0 4.0 0.00 0.10 0.00 86 1011.5
20260506234527 55 16 0.0 3.0 0.00 0.10 0.00 86 1011.7
20260506233107 55 15 2.0 4.0 0.00 0.10 0.00 87 1011.8
20260506231511 55 36 2.0 5.0 0.00 0.10 0.00 87 1012.0
20260506230034 55 21 2.0 4.0 0.00 0.10 0.00 87 1012.2
20260506224545 55 12 3.0 6.0 0.00 0.10 0.00 87 1012.3
20260506223053 55 15 2.0 5.0 0.01 0.10 0.00 87 1012.3
20260506221518 56 19 3.0 9.0 0.02 0.10 0.00 86 1012.4
20260506220039 57 32 1.0 7.0 0.02 0.10 0.00 84 1012.5
20260506214551 58 96 1.0 6.0 0.02 0.10 0.10 80 1012.7
20260506213112 58 111 4.0 9.0 0.01 0.09 0.09 78 1012.8
20260506211518 57 74 1.0 3.0 0.00 0.08 0.08 82 1012.3
20260506210042 57 9 3.0 8.0 0.01 0.08 0.08 83 1012.0
20260506204554 56 355 3.0 6.0 0.01 0.08 0.08 84 1012.1
20260506203059 57 355 3.0 8.0 0.01 0.08 0.08 84 1012.3
20260506201518 58 20 1.0 3.0 0.01 0.08 0.08 82 1012.6
20260506200036 59 103 2.0 8.0 0.00 0.07 0.07 77 1012.7
20260506194540 60 86 3.0 7.0 0.00 0.07 0.07 75 1012.8
20260506193043 60 78 2.0 7.0 0.00 0.07 0.07 74 1012.7
20260506191601 60 129 2.0 8.0 0.00 0.07 0.07 72 1012.6
20260506190014 61 119 2.0 6.0 0.00 0.07 0.07 72 1012.5
20260506184538 61 105 2.0 4.0 0.00 0.07 0.07 71 1012.3
20260506183052 61 94 1.0 3.0 0.00 0.07 0.07 71 1012.2
20260506181511 61 144 1.0 3.0 0.00 0.07 0.07 72 1012.1
20260506180043 61 137 1.0 6.0 0.00 0.07 0.07 73 1011.9
20260506174601 61 127 2.0 4.0 0.00 0.07 0.07 73 1011.9
20260506173015 61 134 2.0 7.0 0.00 0.07 0.07 74 1011.8
20260506171541 62 148 1.0 5.0 0.00 0.07 0.07 73 1011.7
20260506170116 62 192 2.0 6.0 0.00 0.07 0.07 70 1011.8
20260506164525 62 196 3.0 6.0 0.00 0.07 0.07 69 1011.9
20260506163106 62 197 2.0 4.0 0.00 0.07 0.07 68 1011.8
20260506161509 63 172 2.0 5.0 0.00 0.07 0.07 67 1011.9
20260506160031 63 148 2.0 7.0 0.00 0.07 0.07 65 1012.0
20260506154619 63 198 4.0 8.0 0.00 0.07 0.07 64 1012.0
20260506153014 64 190 5.0 9.0 0.00 0.07 0.07 63 1012.2
20260506151541 64 196 4.0 9.0 0.00 0.07 0.07 65 1012.2
20260506144525 64 176 8.0 12.0 0.00 0.07 0.07 63 1012.1
20260506143043 64 198 7.0 14.0 0.00 0.07 0.07 61 1012.2
20260506141543 65 148 8.0 17.0 0.00 0.07 0.07 60 1012.4
20260506140104 65 169 8.0 15.0 0.00 0.07 0.07 60 1012.3
20260506134525 65 206 9.0 16.0 0.00 0.07 0.07 59 1012.2
20260506133033 65 200 8.0 16.0 0.00 0.07 0.07 58 1012.1
20260506131543 67 189 7.0 12.0 0.00 0.07 0.07 57 1012.1
20260506130002 67 222 7.0 12.0 0.00 0.07 0.07 53 1012.1
20260506124528 67 296 3.0 11.0 0.00 0.08 0.07 53 1012.1
20260506123037 67 139 5.0 12.0 0.00 0.08 0.07 55 1012.1
20260506121548 67 198 7.0 12.0 0.00 0.08 0.07 55 1012.0
20260506120007 67 164 1.0 11.0 0.01 0.08 0.07 56 1012.2
20260506114542 66 190 2.0 7.0 0.01 0.08 0.07 58 1012.2
20260506113041 66 205 5.0 10.0 0.01 0.08 0.07 57 1012.4
20260506111502 67 138 2.0 9.0 0.01 0.08 0.07 58 1012.2
20260506110030 66 173 6.0 10.0 0.00 0.07 0.06 59 1012.4
20260506104538 65 200 1.0 6.0 0.00 0.07 0.06 60 1012.6
20260506103047 66 166 4.0 8.0 0.00 0.07 0.06 59 1012.6
20260506101507 65 156 2.0 11.0 0.00 0.07 0.06 59 1012.6
20260506100028 65 93 2.0 9.0 0.00 0.07 0.06 63 1012.8
20260506094554 64 132 3.0 8.0 0.00 0.07 0.06 65 1012.7